Dewpoint
-3 -1 -0 -4 -5 -6 -6 -5 -6 -7 -4 -3 -3 -4 -6 -8 -6 -5 -7 -7 -6 -6 -6 -7 -3 -1 -0 -1 -2 -6 -11 -13 -13 -12 -8 -7 -10 -12 -12 -13 -13 -13 -11 -10
-1 -2 -5 -5 -5 -5 -5 -4 -2 -4 -4 -5 -4 -3 -6 -6 -7 -6 -7 -7 -5 -6 -7 -7 -5 -2 -1 -2 -3 -7 -11 -13 -13 -11 -9 -7 -8 -10 -11 -12 -13 -13 -12 -11
-1 -5 -7 -6 -5 -5 -5 -3 -2 -3 -3 -4 -3 -0 -5 -6 -5 -7 -8 -6 -4 -6 -7 -7 -7 -5 -3 -3 -4 -7 -10 -11 -12 -11 -8 -4 -5 -8 -10 -11 -12 -12 -12 -11
-4 -8 -7 -6 -5 -5 -2 -3 -3 -3 -0 4 -4 2 -6 -4 -4 -8 -8 -8 -5 -7 -7 -7 -7 -6 -5 -4 -4 -6 -8 -10 -10 -9 -8 -6 -6 -8 -9 -10 -11 -11 -12 -12
-0 -6 -5 -4 -3 -4 -1 -3 -2 -1 2 0 1 1 0 -5 -4 -7 -8 -8 -6 -6 -7 -6 -6 -6 -6 -5 -5 -6 -7 -9 -10 -9 -8 -7 -6 -7 -8 -9 -10 -10 -10 -11
-4 -6 -3 -3 -3 -3 -3 -2 -2 -1 2 3 0 2 2 -5 -5 -6 -7 -7 -6 -6 -6 -6 -6 -6 -5 -5 -6 -6 -6 -7 -8 -9 -8 -6 -5 -4 -5 -7 -8 -9 -9 -9
-2 -3 -5 -4 -1 -2 -0 2 5 6 4 2 -1 1 3 -6 -8 -8 -7 -7 -7 -6 -6 -5 -5 -5 -4 -5 -5 -5 -6 -6 -7 -7 -5 -4 -2 -2 -4 -6 -8 -8 -9 -9
1 2 -2 -5 0 3 0 3 5 4 4 0 -2 0 1 -7 -9 -6 -6 -6 -6 -7 -6 -4 -4 -4 -4 -3 -3 -3 -4 -4 -6 -6 -4 -2 -4 -4 -5 -5 -6 -7 -8 -8
1 -1 -5 -4 -3 -0 1 1 -2 1 1 1 -3 -5 -6 -7 -7 -6 -6 -4 -5 -6 -5 -4 -3 -3 -3 -2 -1 -2 -2 -3 -4 -5 -4 -4 -4 -4 -4 -4 -4 -5 -7 -8
-0 2 -4 -4 -3 -2 1 -1 2 3 -1 4 -5 -6 2 1 -3 -7 -6 -4 -4 -5 -5 -4 -3 -2 -2 -1 -1 -1 -2 -3 -3 -4 -4 -4 -4 -4 -4 -4 -5 -6 -7 -9
1 2 -1 -3 -1 2 -0 2 1 2 2 3 1 1 0 2 0 -1 -4 -4 -4 -4 -5 -5 -3 -2 -2 -1 -1 -1 -1 -2 -3 -3 -4 -4 -5 -6 -7 -7 -7 -8 -8 -8
-1 3 3 -1 -2 -3 -1 3 2 3 1 1 1 1 -1 -1 -1 -3 -2 -3 -3 -4 -5 -5 -4 -2 -2 -2 -1 -2 -2 -3 -3 -4 -4 -5 -6 -6 -7 -7 -7 -7 -7 -6
0 2 1 1 -0 -2 -1 0 -0 -0 -0 -1 -0 0 -0 -0 -0 -1 -2 -2 -2 -2 -3 -4 -3 -2 -2 -1 -1 -2 -2 -3 -3 -4 -4 -5 -5 -6 -6 -6 -6 -4 -3 -6
-1 2 1 0 0 1 0 0 -3 -3 -1 -1 -1 -1 0 0 -1 -2 -1 -1 -0 -0 -1 -3 -3 -2 -2 -1 -2 -2 -2 -3 -3 -3 -4 -5 -5 -6 -4 -3 -3 -6 -5 -4
0 1 0 -1 -1 -1 -1 -2 -2 -2 -4 -0 -2 -2 -4 -3 -4 -2 -2 -2 -2 -2 -2 -2 -3 -2 -2 -2 -2 -2 -3 -3 -4 -4 -5 -4 -3 -3 -3 -3 -4 -5 -7 -10
-1 -1 -2 -4 -4 -4 -4 -2 -1 -2 -3 -2 -2 -1 -5 -2 -2 -2 -3 -3 -2 -2 -2 -2 -2 -2 -2 -2 -2 -3 -3 -4 -4 -4 -4 -4 -4 -4 -4 -5 -7 -10 -15 -16
-4 -2 -4 -3 -5 -4 -7 -7 -5 -5 -6 -4 -3 -5 -5 -6 -4 -3 -4 -3 -3 -3 -2 -2 -3 -3 -3 -3 -4 -4 -5 -5 -5 -4 -5 -5 -5 -5 -6 -7 -12 -15 -16 -17
-4 -4 -4 -4 -4 -4 -9 -4 -7 -6 -7 -6 -5 -6 -4 -4 -3 -4 -6 -4 -4 -3 -3 -3 -4 -4 -4 -4 -5 -5 -5 -5 -5 -5 -5 -5 -6 -7 -10 -13 -14 -15 -16 -16
-8 -4 -4 -4 -3 -7 -5 -3 -5 -7 -8 -7 -7 -7 -4 -4 -5 -7 -7 -5 -4 -3 -3 -4 -4 -4 -5 -5 -5 -5 -5 -5 -5 -5 -5 -6 -8 -11 -13 -13 -14 -15 -15 -16
-5 -4 -3 -4 -4 -4 -3 -4 -3 -5 -7 -3 -5 -6 -4 -4 -8 -9 -6 -7 -8 -5 -4 -4 -4 -5 -5 -5 -5 -5 -6 -6 -6 -6 -8 -11 -11 -12 -13 -14 -14 -15 -15 -16
-4 -4 -2 -2 -3 -5 -4 -4 -4 -9 -8 -3 -6 -6 -5 -7 -7 -8 -5 -5 -6 -5 -4 -4 -4 -5 -5 -5 -6 -6 -6 -6 -8 -9 -10 -11 -12 -12 -13 -14 -14 -15 -16 -16
-5 -5 -4 -4 -4 -3 -3 -4 -6 -6 -6 -8 -8 -7 -6 -6 -6 -5 -4 -4 -4 -5 -5 -5 -5 -5 -6 -6 -6 -6 -7 -8 -9 -10 -10 -11 -12 -12 -13 -14 -14 -15 -16 -16
-7 -5 -5 -7 -8 -7 -5 -8 -10 -11 -10 -8 -8 -7 -6 -5 -5 -6 -6 -5 -5 -5 -5 -5 -5 -6 -6 -6 -6 -7 -8 -9 -10 -10 -11 -11 -12 -13 -13 -14 -15 -15 -16 -16
-12 -9 -7 -8 -10 -8 -11 -11 -10 -10 -9 -8 -8 -6 -6 -5 -5 -5 -6 -5 -5 -5 -5 -6 -6 -6 -6 -6 -7 -8 -9 -9 -10 -10 -11 -12 -13 -13 -14 -15 -15 -16 -16 -17
-10 -10 -10 -10 -9 -10 -9 -9 -9 -10 -8 -7 -7 -7 -6 -6 -5 -5 -5 -5 -5 -5 -6 -6 -6 -6 -6 -7 -8 -9 -9 -10 -11 -11 -12 -13 -14 -14 -15 -15 -16 -17 -17 -17
-9 -9 -9 -9 -11 -11 -10 -10 -9 -8 -8 -8 -8 -7 -7 -7 -6 -6 -6 -5 -5 -6 -6 -6 -6 -6 -7 -8 -9 -9 -10 -11 -12 -13 -14 -14 -15 -15 -15 -16 -16 -16 -17 -17
Wind_Speed
6 4 6 6 6 2 2 4 6 1 3 0 7 11 10 8 21 15 12 14 16 19 18 22 24 25 25 26 26 24 23 23 22 21 19 17 15 14 13 12 12 11 10 10
1 7 3 4 5 4 2 5 6 3 5 1 5 11 10 9 10 14 13 13 13 18 20 23 25 26 26 28 26 24 23 23 22 20 18 15 15 14 13 13 13 12 11 10
7 2 3 2 2 1 4 5 4 2 4 6 4 9 6 3 6 9 7 8 14 21 21 23 25 27 26 28 27 24 24 23 21 19 18 17 16 17 16 15 14 13 11 10
3 4 2 1 2 3 3 6 4 4 4 2 0 5 6 4 6 7 11 10 12 18 18 21 24 25 26 26 24 24 24 23 21 20 22 22 19 18 16 15 15 14 12 10
3 2 2 1 3 5 2 4 4 1 3 4 3 3 8 6 6 7 12 17 13 13 17 21 22 23 23 25 24 24 24 22 23 23 21 20 17 14 15 16 16 15 13 12
3 2 4 3 4 4 4 2 2 1 2 2 6 6 5 2 4 7 12 18 13 10 10 15 17 19 19 22 23 25 24 22 24 23 20 18 15 16 17 17 17 16 14 12
3 3 2 2 3 2 1 1 2 3 2 5 2 3 9 5 6 5 8 18 11 7 9 13 17 20 22 23 23 25 25 24 24 21 21 19 20 19 16 16 16 16 14 13
3 4 3 4 2 3 4 4 4 5 2 1 2 5 6 6 9 16 20 15 8 6 7 12 15 17 20 21 22 24 24 24 22 23 23 22 22 19 16 15 15 14 13 13
3 1 2 3 2 2 2 2 2 2 2 3 5 3 4 6 6 11 11 12 9 6 5 8 10 13 15 17 19 21 22 22 21 22 23 22 20 18 18 18 16 16 14 12
2 1 0 1 1 3 2 2 3 2 1 4 4 4 3 6 6 6 6 10 6 4 5 7 10 11 11 13 17 18 20 21 23 23 23 23 22 21 20 19 19 17 14 12
2 2 1 3 5 5 2 1 1 1 3 4 2 4 2 3 4 5 9 10 5 2 2 5 8 11 14 16 18 20 19 22 22 22 23 23 23 22 21 20 18 15 13 12
2 1 3 1 1 2 1 3 3 3 4 1 3 5 4 3 2 5 5 4 3 5 5 6 11 13 16 20 21 22 22 22 22 23 23 23 23 23 21 19 18 16 14 11
2 1 3 2 3 1 1 2 2 1 1 5 4 5 5 4 6 7 7 9 9 10 7 7 10 14 17 17 19 20 22 24 26 27 26 25 23 22 21 20 17 14 11 10
1 2 5 5 3 4 3 4 4 4 3 3 6 7 4 0 7 9 9 11 12 11 15 11 9 10 12 15 19 23 27 28 28 25 22 23 22 20 19 17 17 17 14 9
3 3 5 6 6 3 6 6 6 8 6 6 13 10 3 2 3 7 11 12 13 12 10 12 14 17 18 21 23 23 24 21 20 22 25 25 25 23 20 16 12 8 5 7
2 3 3 4 10 6 7 8 11 8 5 9 12 13 4 1 1 3 7 10 13 12 13 12 14 19 22 24 25 25 23 22 22 22 21 19 18 15 12 8 4 6 9 10
2 1 1 5 3 4 8 10 11 5 5 8 4 7 2 1 3 6 9 9 11 12 12 13 14 17 20 21 21 21 20 19 19 18 16 14 12 9 7 6 9 10 11 11
4 2 1 4 3 2 7 1 4 8 5 4 0 3 4 3 4 11 13 13 12 11 10 11 14 16 18 18 18 20 20 18 17 16 14 10 7 5 9 10 10 11 11 11
6 3 2 2 4 6 3 4 5 6 7 6 6 2 2 3 7 15 7 11 11 11 11 12 14 16 17 20 20 19 17 15 13 11 9 7 8 11 12 10 11 11 11 12
1 4 2 2 3 6 2 4 9 4 4 3 7 4 4 4 2 4 7 11 16 14 14 14 17 18 20 21 19 17 14 11 10 9 10 11 11 10 10 10 11 12 12 13
2 4 11 8 6 6 2 8 6 5 6 6 1 6 9 4 11 16 16 18 16 14 14 15 18 21 22 21 18 16 13 12 12 12 11 10 10 10 11 12 12 13 13 13
6 5 4 3 3 7 11 4 5 1 5 11 12 11 14 18 21 21 23 17 15 16 16 19 22 23 23 21 18 16 14 14 13 13 12 11 11 12 12 13 13 13 14 13
2 5 3 3 2 1 9 7 7 9 9 10 14 17 19 22 23 22 23 21 22 20 20 21 23 23 22 20 18 16 16 15 13 12 12 13 13 14 14 15 15 14 12 11
2 2 2 4 3 2 4 11 11 11 14 15 18 18 19 23 25 28 26 23 25 24 25 24 23 22 21 20 18 17 14 14 15 16 16 14 14 12 12 12 13 13 13 12
3 3 3 5 8 16 10 15 22 21 17 17 20 21 22 23 27 27 27 26 27 27 27 25 22 19 19 19 17 16 16 17 15 15 14 14 12 13 14 14 13 13 13 13
6 3 1 2 8 7 13 19 19 18 18 20 22 26 25 22 26 23 25 26 28 24 24 24 21 19 20 19 18 17 16 15 16 16 14 14 14 15 14 15 14 14 13 14
Wind_Direction
190 225 216 239 210 304 1 334 304 53 124 240 237 260 254 255 198 193 225 189 188 197 199 193 194 191 195 197 201 200 194 192 197 196 195 193 192 188 187 180 175 169 161 152
155 234 39 52 41 28 323 288 278 101 111 101 317 288 269 233 232 190 202 178 185 183 182 185 189 189 196 196 202 199 195 197 201 199 197 198 196 191 196 187 186 181 175 168
236 62 60 5 84 303 244 239 284 273 345 208 309 289 242 127 134 159 164 157 182 180 175 182 189 192 197 199 201 199 197 200 202 197 192 188 197 198 198 194 194 191 187 179
262 42 355 90 294 186 268 2 44 25 45 241 146 275 315 171 171 157 180 186 171 180 186 188 189 193 198 199 201 200 199 202 201 198 198 204 208 206 203 203 199 199 195 192
256 78 77 231 18 347 119 1 53 121 74 41 230 85 273 118 202 196 183 173 180 183 187 187 191 197 199 198 201 199 203 203 200 204 207 208 204 204 206 206 204 204 201 199
89 62 43 65 70 38 145 203 166 27 98 5 244 152 287 44 10 347 143 136 141 156 175 181 188 191 193 197 201 197 203 203 202 207 202 200 194 199 206 209 207 205 204 203
132 90 94 2 123 91 214 148 334 342 357 224 205 77 240 84 35 352 126 109 119 158 172 176 178 180 187 195 203 201 203 200 204 201 194 189 195 211 217 211 207 208 208 206
199 301 23 334 49 157 189 144 166 222 234 275 81 234 259 93 69 68 83 90 94 126 171 178 183 183 195 202 203 200 202 200 200 196 196 196 205 210 207 204 204 206 206 204
17 104 134 39 351 60 196 196 350 75 296 55 227 235 85 117 87 83 77 88 84 105 150 183 195 201 209 201 197 196 198 199 198 197 197 200 201 199 195 193 197 197 202 200
32 277 114 112 242 42 74 300 72 359 309 265 249 290 163 41 48 112 121 111 82 60 146 165 176 189 195 198 191 196 202 198 196 198 198 197 197 196 195 195 195 197 196 193
59 95 175 140 196 176 86 334 294 62 173 201 282 259 29 64 19 353 37 82 84 91 147 185 192 194 190 190 192 195 199 196 198 196 195 196 194 192 194 193 198 197 194 195
42 152 248 239 331 292 5 155 180 149 265 203 161 270 66 112 94 67 22 22 306 284 255 202 194 196 195 198 199 200 200 197 194 195 192 193 192 192 192 190 190 192 190 195
238 274 334 312 16 357 138 211 143 86 55 218 162 258 143 146 86 38 347 332 311 293 275 255 214 207 205 207 201 199 199 194 192 195 194 192 190 184 182 181 182 193 201 197
1 283 196 211 220 147 188 189 195 157 160 245 209 265 202 173 352 342 346 338 332 291 270 252 226 215 204 196 189 187 187 193 194 195 193 188 183 179 181 186 188 194 201 202
64 226 280 293 316 321 201 192 186 192 215 221 268 280 269 313 296 325 340 332 332 324 277 256 227 206 208 207 200 200 199 198 201 195 189 189 193 195 196 195 185 171 187 224
94 279 59 291 256 247 264 239 221 213 221 263 270 280 182 316 3 343 347 345 334 319 301 276 243 233 226 219 213 212 214 209 205 198 191 187 183 178 167 144 161 215 229 236
131 192 83 261 91 355 315 226 211 184 197 189 196 224 168 272 340 324 319 314 314 316 300 277 271 241 226 217 214 209 200 187 180 177 171 165 156 147 148 181 219 230 235 238
168 139 161 250 22 313 245 116 147 178 222 213 195 201 178 203 288 289 289 283 297 306 290 268 256 235 224 218 205 191 181 176 170 169 169 160 151 173 221 226 231 239 243 245
221 192 262 186 212 278 206 203 168 149 269 203 179 141 201 258 314 300 318 275 288 286 277 257 244 225 209 196 186 182 177 176 175 178 175 176 206 217 230 232 236 243 248 251
334 307 218 342 215 240 215 128 122 109 295 88 123 168 233 173 10 263 289 300 300 276 258 246 225 214 200 189 184 182 184 189 198 202 202 209 220 230 239 243 246 249 250 250
192 216 230 238 261 286 67 128 136 93 248 138 284 303 290 197 252 296 288 290 284 263 250 232 216 205 198 193 191 192 201 212 214 215 220 227 235 242 244 247 247 249 251 253
171 172 204 197 250 268 132 91 126 168 10 349 334 319 313 300 298 291 291 281 259 254 236 219 209 203 199 198 199 205 215 221 221 228 233 239 243 243 244 246 248 248 248 249
313 195 212 194 219 109 190 50 15 7 10 1 328 316 310 305 299 296 295 282 257 239 233 215 206 202 202 204 212 223 226 225 228 239 248 248 245 243 242 241 241 240 243 250
256 72 197 36 45 49 68 67 43 8 348 328 325 318 313 307 301 295 295 276 261 239 223 213 206 209 208 211 221 229 233 239 242 241 241 242 245 248 249 247 244 246 246 247
245 22 271 271 6 350 64 23 359 336 328 326 317 319 320 316 308 299 292 272 251 242 222 214 216 215 213 222 227 233 238 240 246 250 251 250 249 248 245 244 244 246 243 243
15 24 42 241 21 325 298 317 330 331 333 334 327 319 311 313 305 303 293 264 239 236 225 223 216 219 223 226 228 234 243 250 251 248 243 240 239 239 239 241 241 242 243 244
Height
1483 1488 1489 1478 1476 1476 1478 1482 1485 1475 1487 1486 1486 1482 1476 1472 1474 1476 1479 1481 1483 1487 1491 1495 1498 1501 1505 1508 1511 1514 1518 1521 1524 1527 1530 1534 1536 1539 1542 1544 1547 1549 1551 1552
1485 1488 1479 1478 1478 1479 1480 1486 1486 1481 1485 1488 1484 1481 1471 1467 1466 1469 1474 1477 1481 1485 1488 1493 1496 1500 1503 1506 1509 1513 1517 1520 1523 1527 1530 1533 1536 1539 1541 1544 1546 1548 1550 1552
1484 1483 1480 1479 1480 1483 1483 1486 1484 1486 1486 1485 1488 1483 1464 1459 1463 1466 1472 1475 1480 1483 1487 1491 1494 1498 1501 1504 1507 1511 1515 1518 1522 1526 1529 1532 1534 1537 1539 1542 1544 1546 1549 1551
1478 1483 1482 1482 1483 1482 1490 1490 1488 1490 1497 1510 1487 1510 1467 1461 1465 1468 1472 1476 1480 1482 1486 1490 1493 1496 1499 1503 1506 1510 1513 1517 1521 1524 1527 1529 1531 1534 1537 1540 1543 1545 1547 1549
1484 1483 1485 1485 1490 1489 1493 1492 1492 1493 1501 1506 1493 1519 1480 1461 1468 1467 1469 1474 1479 1483 1485 1487 1491 1494 1497 1501 1504 1508 1511 1515 1518 1521 1525 1528 1531 1533 1535 1537 1540 1543 1545 1547
1487 1487 1489 1492 1493 1492 1493 1493 1493 1494 1501 1530 1504 1500 1486 1468 1471 1468 1467 1473 1479 1483 1486 1488 1492 1495 1497 1499 1502 1505 1508 1513 1516 1519 1523 1527 1529 1530 1532 1535 1538 1540 1543 1545
1485 1489 1492 1492 1493 1494 1494 1496 1514 1517 1527 1519 1491 1501 1483 1474 1475 1473 1472 1476 1480 1484 1488 1490 1492 1493 1495 1498 1501 1504 1506 1509 1513 1518 1521 1524 1527 1530 1531 1533 1536 1538 1540 1542
1489 1496 1495 1496 1498 1499 1496 1502 1510 1514 1503 1493 1492 1506 1481 1477 1477 1477 1477 1480 1483 1486 1488 1490 1492 1494 1495 1497 1499 1502 1505 1508 1511 1514 1519 1521 1523 1527 1529 1531 1533 1536 1538 1541
1491 1488 1498 1497 1497 1499 1497 1507 1499 1513 1502 1523 1488 1470 1479 1478 1480 1481 1482 1484 1486 1487 1489 1490 1492 1493 1495 1497 1499 1501 1503 1507 1510 1512 1515 1518 1521 1523 1526 1529 1531 1533 1535 1538
1488 1494 1494 1500 1499 1501 1501 1504 1508 1516 1523 1507 1476 1473 1490 1484 1483 1483 1484 1485 1488 1489 1490 1491 1491 1493 1495 1497 1499 1501 1502 1505 1507 1509 1512 1515 1517 1519 1523 1527 1530 1531 1533 1536
1491 1497 1500 1499 1500 1500 1508 1509 1507 1507 1507 1513 1511 1493 1486 1487 1488 1489 1487 1488 1489 1489 1491 1491 1493 1493 1493 1495 1497 1499 1500 1502 1505 1507 1509 1512 1513 1515 1520 1521 1528 1530 1531 1533
1497 1499 1504 1490 1507 1505 1502 1500 1503 1507 1507 1509 1517 1506 1489 1489 1489 1489 1490 1491 1491 1490 1490 1490 1491 1492 1493 1493 1493 1495 1497 1499 1502 1506 1506 1509 1511 1513 1515 1519 1522 1527 1528 1531
1498 1500 1507 1491 1508 1505 1507 1506 1509 1510 1511 1515 1518 1501 1489 1489 1489 1490 1489 1489 1490 1491 1490 1490 1490 1490 1491 1492 1494 1495 1496 1497 1496 1498 1502 1505 1510 1510 1513 1516 1519 1523 1526 1527
1495 1497 1500 1505 1492 1499 1509 1505 1511 1510 1518 1506 1498 1491 1491 1489 1490 1488 1488 1488 1487 1487 1488 1488 1489 1490 1491 1491 1492 1491 1491 1494 1493 1496 1501 1503 1507 1509 1511 1514 1515 1519 1521 1523
1498 1508 1493 1491 1490 1493 1497 1502 1506 1510 1503 1500 1480 1491 1491 1488 1487 1486 1486 1485 1484 1484 1484 1485 1487 1487 1488 1489 1490 1491 1493 1494 1495 1496 1498 1500 1502 1505 1508 1510 1513 1514 1518 1521
1499 1508 1505 1514 1491 1496 1500 1493 1492 1496 1497 1495 1489 1488 1485 1484 1484 1484 1483 1483 1482 1482 1481 1481 1483 1484 1485 1486 1487 1488 1489 1491 1493 1496 1498 1500 1501 1504 1506 1509 1512 1514 1516 1518
1503 1505 1513 1509 1487 1496 1503 1486 1483 1488 1488 1485 1498 1486 1482 1484 1483 1482 1481 1481 1480 1480 1479 1478 1478 1480 1481 1482 1484 1485 1488 1489 1491 1494 1497 1500 1500 1502 1505 1507 1510 1512 1513 1514
1503 1506 1507 1515 1501 1523 1477 1474 1477 1479 1483 1479 1481 1481 1479 1480 1480 1480 1478 1478 1476 1476 1475 1476 1476 1477 1478 1479 1482 1485 1487 1489 1490 1494 1497 1497 1498 1501 1506 1506 1506 1509 1511 1512
1494 1500 1510 1517 1505 1475 1468 1474 1479 1480 1480 1473 1477 1478 1478 1479 1479 1475 1474 1474 1474 1474 1473 1473 1474 1475 1476 1478 1481 1484 1487 1488 1490 1492 1494 1495 1499 1500 1505 1502 1504 1506 1507 1508
1497 1499 1505 1505 1513 1503 1470 1469 1469 1472 1492 1473 1474 1477 1478 1479 1488 1475 1472 1472 1472 1471 1470 1469 1471 1473 1475 1478 1480 1482 1485 1487 1488 1490 1492 1494 1496 1497 1498 1499 1500 1502 1503 1505
1506 1501 1497 1496 1500 1480 1469 1469 1470 1492 1492 1477 1477 1477 1477 1479 1476 1472 1470 1468 1468 1467 1466 1467 1468 1470 1473 1476 1478 1480 1482 1484 1486 1488 1489 1490 1491 1492 1493 1495 1497 1498 1500 1499
1500 1507 1502 1497 1501 1489 1472 1473 1480 1480 1476 1476 1476 1476 1475 1473 1471 1469 1467 1465 1463 1462 1462 1463 1465 1467 1470 1473 1475 1477 1479 1482 1483 1485 1485 1486 1487 1489 1490 1491 1492 1493 1495 1496
1499 1488 1493 1485 1479 1472 1472 1473 1475 1474 1475 1475 1475 1474 1472 1469 1466 1465 1462 1461 1459 1458 1458 1459 1461 1464 1467 1469 1473 1475 1477 1478 1479 1480 1481 1482 1483 1484 1486 1487 1488 1489 1490 1490
1479 1479 1486 1482 1475 1476 1473 1473 1474 1474 1473 1473 1472 1470 1468 1465 1462 1458 1457 1455 1454 1453 1454 1455 1458 1460 1463 1466 1469 1471 1472 1474 1475 1477 1478 1479 1479 1479 1480 1482 1483 1484 1485 1485
1483 1481 1479 1476 1473 1472 1472 1474 1473 1470 1470 1469 1467 1466 1463 1460 1455 1453 1451 1449 1448 1448 1449 1451 1454 1456 1460 1462 1464 1467 1469 1471 1472 1472 1472 1473 1473 1475 1476 1477 1478 1479 1480 1481
1484 1487 1488 1486 1485 1484 1477 1475 1474 1470 1468 1467 1464 1460 1458 1457 1452 1449 1445 1443 1442 1443 1445 1447 1450 1453 1455 1458 1460 1462 1464 1466 1467 1467 1468 1469 1469 1471 1472 1472 1473 1475 1476 1477